When you browse on this site, cookies collect data to enhance your experience and personalize the content and advertising you see.
Visit our Privacy Policy to learn more. By continuing to use the site, you agree to this use of cookies and data.
  • Em Portugal
  • Lista de países
  • Para 7 dias
  • Temperatura da água
  • Mapas de satélite
  • Mapa do tempo
  • Widgets de tempo
  • user-avatar
    Iniciar Sessão

    Previsão horária em Borovec

    Hoje, 19 Novembro, Segunda-feira

    Tempo Temperatura Precipitação Vento Pressão Humidade
    00:00 +1°C° 1 mm 2 m/s 707 mmHg 94%
    01:00 +1°C° 1 mm 2 m/s 707 mmHg 94%
    02:00 +2°C° 0 mm 1 m/s 706 mmHg 93%
    03:00 +2°C° 0.4 mm 1 m/s 706 mmHg 93%
    04:00 +2°C° 0.4 mm 1 m/s 706 mmHg 93%
    05:00 +2°C° 0.4 mm 1 m/s 706 mmHg 93%
    06:00 +1°C° 0.1 mm 1 m/s 706 mmHg 93%
    07:00 +1°C° 0.1 mm 1 m/s 706 mmHg 93%
    08:00 +1°C° 0 mm 1 m/s 706 mmHg 91%
    09:00 +2°C° 0 mm 1 m/s 707 mmHg 88%
    10:00 +4°C° 0 mm 1 m/s 707 mmHg 85%
    11:00 +6°C° 0 mm 1 m/s 708 mmHg 81%
    12:00 +6°C° 0 mm 1 m/s 708 mmHg 80%
    13:00 +7°C° 0 mm 1 m/s 708 mmHg 78%
    14:00 +7°C° 0 mm 1 m/s 708 mmHg 81%
    15:00 +6°C° 0 mm 1 m/s 708 mmHg 83%
    16:00 +5°C° 0 mm 1 m/s 708 mmHg 84%
    17:00 +3°C° 0 mm 0 m/s 708 mmHg 86%
    18:00 +3°C° 0 mm 0 m/s 709 mmHg 85%
    19:00 +3°C° 0 mm 1 m/s 709 mmHg 83%
    20:00 +3°C° 0 mm 1 m/s 709 mmHg 82%
    21:00 +3°C° 0 mm 1 m/s 710 mmHg 81%
    22:00 +3°C° 0 mm 1 m/s 710 mmHg 80%
    23:00 +3°C° 0 mm 1 m/s 710 mmHg 80%

    Amanhã, 20 Novembro, Terça-feira

    Tempo Temperatura Precipitação Vento Pressão Humidade
    00:00 +4°C° 0 mm 1 m/s 710 mmHg 80%
    01:00 +4°C° 0 mm 1 m/s 711 mmHg 80%
    02:00 +3°C° 0 mm 2 m/s 711 mmHg 80%
    03:00 +3°C° 0 mm 2 m/s 711 mmHg 81%
    04:00 +3°C° 0 mm 2 m/s 711 mmHg 82%
    05:00 +4°C° 0 mm 2 m/s 711 mmHg 83%
    06:00 +4°C° 0.1 mm 2 m/s 711 mmHg 84%
    07:00 +4°C° 0.1 mm 2 m/s 711 mmHg 85%
    08:00 +5°C° 0.1 mm 2 m/s 711 mmHg 87%
    09:00 +5°C° 0.6 mm 2 m/s 711 mmHg 87%
    10:00 +6°C° 0.6 mm 2 m/s 711 mmHg 86%
    11:00 +7°C° 0.6 mm 2 m/s 711 mmHg 86%
    12:00 +8°C° 0.1 mm 2 m/s 711 mmHg 86%
    13:00 +9°C° 0.1 mm 2 m/s 711 mmHg 85%
    14:00 +9°C° 0.1 mm 2 m/s 710 mmHg 85%
    15:00 +8°C° 0.6 mm 2 m/s 710 mmHg 88%
    16:00 +8°C° 0.6 mm 2 m/s 710 mmHg 91%
    17:00 +7°C° 0.6 mm 2 m/s 710 mmHg 94%
    18:00 +7°C° 0.6 mm 2 m/s 710 mmHg 94%
    19:00 +8°C° 0.6 mm 1 m/s 710 mmHg 95%
    20:00 +7°C° 0.6 mm 1 m/s 710 mmHg 95%
    21:00 +7°C° 0.4 mm 1 m/s 709 mmHg 95%
    22:00 +7°C° 0.4 mm 1 m/s 709 mmHg 95%
    23:00 +7°C° 0.4 mm 1 m/s 709 mmHg 95%

    Depois de amanhã, 21 Novembro, Quarta-feira

    Tempo Temperatura Precipitação Vento Pressão Humidade
    00:00 +7°C° 0.2 mm 1 m/s 709 mmHg 95%
    01:00 +7°C° 0.2 mm 1 m/s 709 mmHg 95%
    02:00 +7°C° 0.2 mm 1 m/s 709 mmHg 95%
    03:00 +7°C° 0.2 mm 1 m/s 708 mmHg 95%
    04:00 +7°C° 0.2 mm 1 m/s 708 mmHg 95%
    05:00 +7°C° 0.2 mm 1 m/s 708 mmHg 96%
    06:00 +7°C° 0.4 mm 1 m/s 708 mmHg 96%
    07:00 +7°C° 0.4 mm 1 m/s 708 mmHg 95%
    08:00 +7°C° 0.4 mm 1 m/s 708 mmHg 95%
    09:00 +7°C° 0.5 mm 1 m/s 708 mmHg 94%
    10:00 +8°C° 0.5 mm 1 m/s 708 mmHg 92%
    11:00 +8°C° 0.5 mm 1 m/s 708 mmHg 90%
    12:00 +8°C° 1 mm 1 m/s 708 mmHg 91%
    13:00 +7°C° 1 mm 1 m/s 708 mmHg 92%
    14:00 +6°C° 1 mm 2 m/s 708 mmHg 92%
    15:00 +6°C° 0.7 mm 2 m/s 708 mmHg 93%
    16:00 +5°C° 0.7 mm 2 m/s 708 mmHg 93%
    17:00 +5°C° 0.7 mm 2 m/s 709 mmHg 93%
    18:00 +5°C° 0.4 mm 2 m/s 709 mmHg 93%
    19:00 +5°C° 0.4 mm 1 m/s 710 mmHg 93%
    20:00 +5°C° 0.4 mm 1 m/s 710 mmHg 93%
    21:00 +5°C° 0.3 mm 1 m/s 710 mmHg 92%
    22:00 +5°C° 0.3 mm 1 m/s 711 mmHg 92%
    23:00 +5°C° 0.3 mm 1 m/s 711 mmHg 92%

    22 Novembro, Quinta-feira

    Tempo Temperatura Precipitação Vento Pressão Humidade
    00:00 +5°C° 0.2 mm 1 m/s 711 mmHg 92%
    01:00 +4°C° 0.2 mm 1 m/s 712 mmHg 92%
    02:00 +4°C° 0.2 mm 1 m/s 712 mmHg 92%
    03:00 +4°C° 0.1 mm 1 m/s 712 mmHg 92%
    04:00 +4°C° 0.1 mm 1 m/s 712 mmHg 93%
    05:00 +4°C° 0.1 mm 1 m/s 712 mmHg 93%
    06:00 +4°C° 0.1 mm 1 m/s 713 mmHg 92%
    07:00 +4°C° 0.1 mm 1 m/s 713 mmHg 92%
    08:00 +4°C° 0.1 mm 1 m/s 713 mmHg 92%
    09:00 +4°C° 0.1 mm 1 m/s 713 mmHg 88%
    10:00 +5°C° 0.1 mm 1 m/s 714 mmHg 85%
    11:00 +6°C° 0.1 mm 1 m/s 714 mmHg 82%
    12:00 +7°C° 0.1 mm 1 m/s 714 mmHg 81%
    13:00 +7°C° 0.1 mm 1 m/s 714 mmHg 80%
    14:00 +6°C° 0.1 mm 2 m/s 714 mmHg 79%
    15:00 +7°C° 0.1 mm 1 m/s 714 mmHg 82%
    16:00 +6°C° 0.1 mm 1 m/s 714 mmHg 85%
    17:00 +5°C° 0.1 mm 1 m/s 714 mmHg 89%
    18:00 +5°C° 0 mm 1 m/s 714 mmHg 90%
    19:00 +4°C° 0 mm 1 m/s 714 mmHg 91%
    20:00 +4°C° 0 mm 1 m/s 715 mmHg 92%
    21:00 +4°C° 0 mm 1 m/s 715 mmHg 92%
    22:00 +4°C° 0 mm 1 m/s 715 mmHg 92%
    23:00 +3°C° 0 mm 1 m/s 715 mmHg 93%

    23 Novembro, Sexta-feira

    Tempo Temperatura Precipitação Vento Pressão Humidade
    00:00 +3°C° 0 mm 1 m/s 716 mmHg 93%
    01:00 +3°C° 0 mm 1 m/s 716 mmHg 93%
    02:00 +3°C° 0 mm 1 m/s 716 mmHg 93%
    03:00 +3°C° 0 mm 1 m/s 716 mmHg 93%
    04:00 +3°C° 0 mm 1 m/s 716 mmHg 93%
    05:00 +3°C° 0 mm 1 m/s 716 mmHg 93%
    06:00 +3°C° 0 mm 1 m/s 716 mmHg 93%
    07:00 +3°C° 0 mm 1 m/s 717 mmHg 92%
    08:00 +3°C° 0 mm 1 m/s 717 mmHg 92%
    09:00 +4°C° 0 mm 1 m/s 718 mmHg 87%
    10:00 +5°C° 0 mm 1 m/s 718 mmHg 82%
    11:00 +7°C° 0 mm 1 m/s 718 mmHg 77%
    12:00 +7°C° 0 mm 1 m/s 718 mmHg 74%
    13:00 +7°C° 0 mm 1 m/s 718 mmHg 71%
    14:00 +7°C° 0 mm 2 m/s 718 mmHg 69%
    15:00 +7°C° 0 mm 1 m/s 718 mmHg 72%
    16:00 +6°C° 0 mm 1 m/s 718 mmHg 76%
    17:00 +4°C° 0 mm 1 m/s 718 mmHg 79%
    18:00 +4°C° 0 mm 1 m/s 718 mmHg 80%
    19:00 +3°C° 0 mm 1 m/s 718 mmHg 81%
    20:00 +3°C° 0 mm 1 m/s 718 mmHg 81%
    21:00 +2°C° 0 mm 1 m/s 718 mmHg 81%
    22:00 +2°C° 0 mm 1 m/s 719 mmHg 80%
    23:00 +2°C° 0 mm 1 m/s 719 mmHg 79%

    24 Novembro, Sábado

    Tempo Temperatura Precipitação Vento Pressão Humidade
    00:00 +2°C° 0 mm 1 m/s 718 mmHg 79%
    01:00 +2°C° 0 mm 1 m/s 718 mmHg 79%
    02:00 +2°C° 0 mm 1 m/s 718 mmHg 78%
    03:00 +2°C° 0 mm 1 m/s 718 mmHg 78%
    04:00 +1°C° 0 mm 1 m/s 718 mmHg 78%
    05:00 +1°C° 0 mm 1 m/s 718 mmHg 78%
    06:00 +2°C° 0 mm 1 m/s 718 mmHg 77%
    07:00 +2°C° 0 mm 1 m/s 717 mmHg 77%
    08:00 +2°C° 0 mm 1 m/s 717 mmHg 77%
    09:00 +4°C° 0 mm 1 m/s 718 mmHg 71%
    10:00 +6°C° 0 mm 1 m/s 718 mmHg 66%
    11:00 +8°C° 0 mm 1 m/s 718 mmHg 61%
    12:00 +9°C° 0 mm 1 m/s 717 mmHg 59%
    13:00 +10°C° 0 mm 1 m/s 717 mmHg 58%
    14:00 +10°C° 0 mm 1 m/s 716 mmHg 57%
    15:00 +9°C° 0 mm 1 m/s 716 mmHg 63%
    16:00 +7°C° 0 mm 1 m/s 715 mmHg 68%
    17:00 +6°C° 0 mm 1 m/s 715 mmHg 73%
    18:00 +6°C° 0 mm 1 m/s 715 mmHg 75%
    19:00 +5°C° 0 mm 1 m/s 715 mmHg 76%
    20:00 +5°C° 0 mm 1 m/s 715 mmHg 78%
    21:00 +5°C° 0 mm 1 m/s 715 mmHg 78%
    22:00 +5°C° 0 mm 1 m/s 714 mmHg 79%
    23:00 +5°C° 0 mm 1 m/s 714 mmHg 79%
    Mostrar mais